Location: Bluff Heights
(33.7692°N, 118.1592°W)
Time: 11:10:19
(UTC+00:00)

Tiros 1 despin weight - Visible Passes

Search period start: 03 August 2021 00:00
Search period end: 13 August 2021 00:00
Orbit: 593 x 642 km, 48.2° (Epoch: 02 August)

Date Brightness Start Highest point End Pass type
(mag) Time Alt. Az. Time Alt. Az. Time Alt. Az.
03 Aug ? 03:45:15 10° WNW 03:49:25 33° SW 03:53:31 10° SSE visible
04 Aug ? 04:02:38 10° W 04:05:24 16° SW 04:08:07 10° SSW visible
07 Aug ? 03:11:10 10° WSW 03:12:32 11° SW 03:13:53 10° SW visible
